Location: Krakow
(50.0830°N, 19.9170°E)
Time: 04:48:33
(UTC+01:00)

Courier 1B Rocket - Pass Details

Date: 20 December 2023
Orbit: 920 x 1202 km, 28.2° (Epoch: 29 February)

Event Time Altitude Azimuth Distance (km) Brightness Sun altitude
Rises 05:43:27 0° 211° (SSW) 4,085 8.1 -16.9°
Reaches altitude 10° 05:50:14 10° 170° (S) 3,120 8.0 -15.8°
Maximum altitude 05:50:50 10° 166° (SSE) 3,110 8.1 -15.7°
Drops below altitude 10° 05:51:27 10° 161° (SSE) 3,116 8.1 -15.6°
Sets 05:58:08 0° 121° (ESE) 4,034 10.0 -14.6°
